• In Latvia
  • List of Countries
  • For 7 days
  • Water Temperature
  • Satellite Maps
  • Weather Map
  • Weather Widgets
  • user-avatar
    Login

    Hourly Weather Ali Bayramli

    Today, 26 February, Sunday

    Time Temperature Precipitation Wind Pressure Humidity
    00:00 +8°C° 0 mm 4 mps 759 mmHg 61%
    01:00 +7°C° 0 mm 4 mps 759 mmHg 61%
    02:00 +7°C° 0 mm 5 mps 758 mmHg 60%
    03:00 +7°C° 0 mm 5 mps 758 mmHg 60%
    04:00 +7°C° 0 mm 5 mps 758 mmHg 60%
    05:00 +7°C° 0 mm 5 mps 758 mmHg 59%
    06:00 +5°C° 0 mm 6 mps 758 mmHg 58%
    07:00 +8°C° 0 mm 6 mps 758 mmHg 52%
    08:00 +10°C° 0 mm 7 mps 759 mmHg 46%
    09:00 +12°C° 0 mm 8 mps 759 mmHg 40%
    10:00 +14°C° 0 mm 7 mps 760 mmHg 38%
    11:00 +16°C° 0 mm 6 mps 760 mmHg 35%
    12:00 +17°C° 0 mm 6 mps 761 mmHg 32%
    13:00 +17°C° 0 mm 6 mps 761 mmHg 34%
    14:00 +17°C° 0 mm 7 mps 761 mmHg 37%
    15:00 +16°C° 0 mm 7 mps 762 mmHg 39%
    16:00 +13°C° 0 mm 8 mps 763 mmHg 46%
    17:00 +10°C° 0 mm 9 mps 764 mmHg 53%
    18:00 +7°C° 0 mm 10 mps 765 mmHg 60%
    19:00 +6°C° 0 mm 10 mps 766 mmHg 60%
    20:00 +5°C° 0 mm 9 mps 767 mmHg 60%
    21:00 +3°C° 0 mm 9 mps 768 mmHg 59%
    22:00 +4°C° 0 mm 8 mps 768 mmHg 58%
    23:00 +4°C° 0 mm 7 mps 768 mmHg 58%

    Tomorrow, 27 February, Monday

    Time Temperature Precipitation Wind Pressure Humidity
    00:00 +4°C° 0 mm 7 mps 769 mmHg 57%
    01:00 +4°C° 0 mm 6 mps 769 mmHg 59%
    02:00 +3°C° 0 mm 6 mps 769 mmHg 60%
    03:00 +3°C° 0 mm 5 mps 769 mmHg 62%
    04:00 +3°C° 0 mm 5 mps 769 mmHg 63%
    05:00 +4°C° 0 mm 4 mps 769 mmHg 63%
    06:00 +4°C° 0 mm 4 mps 769 mmHg 64%
    07:00 +4°C° 0 mm 3 mps 769 mmHg 63%
    08:00 +5°C° 0 mm 3 mps 769 mmHg 61%
    09:00 +5°C° 0 mm 3 mps 769 mmHg 60%
    10:00 +7°C° 0 mm 3 mps 769 mmHg 59%
    11:00 +7°C° 0 mm 3 mps 768 mmHg 59%
    12:00 +8°C° 0 mm 2 mps 768 mmHg 58%
    13:00 +8°C° 0 mm 3 mps 767 mmHg 58%
    14:00 +9°C° 0 mm 3 mps 766 mmHg 58%
    15:00 +9°C° 0 mm 3 mps 766 mmHg 58%
    16:00 +9°C° 0 mm 3 mps 766 mmHg 63%
    17:00 +8°C° 0 mm 2 mps 766 mmHg 68%
    18:00 +7°C° 0 mm 2 mps 766 mmHg 73%
    19:00 +7°C° 0 mm 2 mps 766 mmHg 77%
    20:00 +6°C° 0 mm 2 mps 766 mmHg 81%
    21:00 +5°C° 0 mm 2 mps 766 mmHg 85%
    22:00 +5°C° 0 mm 2 mps 766 mmHg 87%
    23:00 +6°C° 0 mm 1 mps 765 mmHg 89%

    Day after tomorrow, 28 February, Tuesday

    Time Temperature Precipitation Wind Pressure Humidity
    00:00 +5°C° 0 mm 1 mps 765 mmHg 92%
    01:00 +5°C° 0 mm 1 mps 765 mmHg 92%
    02:00 +5°C° 0 mm 1 mps 765 mmHg 93%
    03:00 +5°C° 0 mm 1 mps 765 mmHg 93%
    04:00 +5°C° 0 mm 1 mps 765 mmHg 93%
    05:00 +4°C° 0 mm 1 mps 765 mmHg 93%
    06:00 +4°C° 0 mm 1 mps 765 mmHg 93%
    07:00 +6°C° 0 mm 1 mps 765 mmHg 87%
    08:00 +7°C° 0 mm 1 mps 766 mmHg 80%
    09:00 +9°C° 0 mm 1 mps 766 mmHg 73%
    10:00 +10°C° 0 mm 1 mps 766 mmHg 66%
    11:00 +11°C° 0 mm 1 mps 766 mmHg 59%
    12:00 +12°C° 0 mm 1 mps 766 mmHg 53%
    13:00 +13°C° 0 mm 1 mps 765 mmHg 50%
    14:00 +14°C° 0 mm 1 mps 765 mmHg 48%
    15:00 +14°C° 0 mm 1 mps 765 mmHg 46%
    16:00 +13°C° 0 mm 1 mps 765 mmHg 52%
    17:00 +10°C° 0 mm 2 mps 765 mmHg 59%
    18:00 +9°C° 0 mm 2 mps 766 mmHg 65%
    19:00 +9°C° 0 mm 2 mps 766 mmHg 70%
    20:00 +8°C° 0 mm 2 mps 766 mmHg 75%
    21:00 +7°C° 0 mm 2 mps 767 mmHg 81%
    22:00 +8°C° 0 mm 1 mps 767 mmHg 82%
    23:00 +7°C° 0 mm 1 mps 767 mmHg 84%

    1 March, Wednesday

    Time Temperature Precipitation Wind Pressure Humidity
    00:00 +7°C° 0 mm 1 mps 767 mmHg 86%
    01:00 +7°C° 0 mm 1 mps 766 mmHg 86%
    02:00 +6°C° 0 mm 1 mps 766 mmHg 87%
    03:00 +6°C° 0 mm 1 mps 766 mmHg 87%
    04:00 +6°C° 0 mm 1 mps 766 mmHg 87%
    05:00 +6°C° 0 mm 1 mps 767 mmHg 87%
    06:00 +6°C° 0 mm 1 mps 767 mmHg 87%
    07:00 +7°C° 0 mm 1 mps 767 mmHg 80%
    08:00 +9°C° 0 mm 1 mps 767 mmHg 72%
    09:00 +11°C° 0 mm 1 mps 767 mmHg 65%
    10:00 +12°C° 0 mm 2 mps 767 mmHg 60%
    11:00 +13°C° 0 mm 2 mps 767 mmHg 56%
    12:00 +13°C° 0 mm 3 mps 766 mmHg 52%
    13:00 +14°C° 0 mm 3 mps 765 mmHg 51%
    14:00 +14°C° 0 mm 3 mps 765 mmHg 50%
    15:00 +15°C° 0 mm 4 mps 764 mmHg 50%
    16:00 +13°C° 0 mm 4 mps 764 mmHg 56%
    17:00 +12°C° 0 mm 4 mps 764 mmHg 62%
    18:00 +10°C° 0 mm 3 mps 764 mmHg 68%
    19:00 +9°C° 0 mm 3 mps 764 mmHg 71%
    20:00 +9°C° 0 mm 3 mps 764 mmHg 74%
    21:00 +8°C° 0 mm 2 mps 764 mmHg 78%
    22:00 +8°C° 0 mm 2 mps 764 mmHg 79%
    23:00 +7°C° 0 mm 2 mps 764 mmHg 81%

    2 March, Thursday

    Time Temperature Precipitation Wind Pressure Humidity
    00:00 +7°C° 0 mm 2 mps 763 mmHg 82%
    01:00 +7°C° 0 mm 2 mps 763 mmHg 84%
    02:00 +6°C° 0 mm 2 mps 762 mmHg 85%
    03:00 +6°C° 0 mm 2 mps 762 mmHg 86%
    04:00 +7°C° 0 mm 1 mps 762 mmHg 87%
    05:00 +7°C° 0 mm 1 mps 762 mmHg 88%
    06:00 +6°C° 0 mm 1 mps 762 mmHg 89%
    07:00 +8°C° 0 mm 1 mps 762 mmHg 82%
    08:00 +10°C° 0 mm 1 mps 762 mmHg 75%
    09:00 +11°C° 0 mm 1 mps 761 mmHg 69%
    10:00 +12°C° 0 mm 2 mps 761 mmHg 63%
    11:00 +14°C° 0 mm 2 mps 760 mmHg 57%
    12:00 +15°C° 0 mm 2 mps 760 mmHg 51%
    13:00 +16°C° 0 mm 3 mps 759 mmHg 50%
    14:00 +16°C° 0 mm 3 mps 759 mmHg 49%
    15:00 +15°C° 0 mm 4 mps 758 mmHg 48%
    16:00 +14°C° 0 mm 3 mps 758 mmHg 54%
    17:00 +13°C° 0 mm 3 mps 758 mmHg 59%
    18:00 +11°C° 0 mm 3 mps 758 mmHg 65%
    19:00 +12°C° 0 mm 2 mps 758 mmHg 67%
    20:00 +10°C° 0 mm 2 mps 758 mmHg 70%
    21:00 +10°C° 0 mm 1 mps 758 mmHg 72%
    22:00 +10°C° 0 mm 1 mps 758 mmHg 72%
    23:00 +10°C° 0 mm 1 mps 758 mmHg 72%

    3 March, Friday

    Time Temperature Precipitation Wind Pressure Humidity
    00:00 +10°C° 0 mm 1 mps 757 mmHg 73%
    01:00 +9°C° 0 mm 0 mps 757 mmHg 73%
    02:00 +8°C° 0 mm 0 mps 757 mmHg 73%
    03:00 +8°C° 0 mm 0 mps 757 mmHg 73%
    04:00 +8°C° 0 mm 0 mps 757 mmHg 75%
    05:00 +8°C° 0 mm 0 mps 757 mmHg 76%
    06:00 +8°C° 0 mm 1 mps 757 mmHg 77%
    07:00 +10°C° 0 mm 1 mps 757 mmHg 71%
    08:00 +11°C° 0 mm 1 mps 758 mmHg 64%
    09:00 +13°C° 0 mm 1 mps 758 mmHg 58%
    10:00 +14°C° 0 mm 1 mps 757 mmHg 53%
    11:00 +16°C° 0 mm 2 mps 757 mmHg 49%
    12:00 +17°C° 0 mm 2 mps 757 mmHg 44%
    13:00 +17°C° 0 mm 2 mps 757 mmHg 43%
    14:00 +18°C° 0 mm 2 mps 756 mmHg 42%
    15:00 +18°C° 0 mm 2 mps 756 mmHg 41%
    16:00 +17°C° 0 mm 2 mps 756 mmHg 46%
    17:00 +16°C° 0 mm 2 mps 757 mmHg 50%
    18:00 +14°C° 0 mm 2 mps 757 mmHg 55%
    19:00 +14°C° 0 mm 2 mps 758 mmHg 58%
    20:00 +13°C° 0 mm 1 mps 758 mmHg 61%
    21:00 +13°C° 0 mm 1 mps 759 mmHg 63%
    22:00 +13°C° 0.1 mm 2 mps 759 mmHg 65%
    23:00 +13°C° 0.1 mm 2 mps 759 mmHg 66%
    Show more